Location: Unspecified
(22.6800°N, 112.2000°E)
Time: 16:11:20
(UTC+08:00)

Vanguard 3 - All Passes

Search period start: 31 July 2021 00:00
Search period end: 10 August 2021 00:00
Orbit: 508 x 3261 km, 33.4° (Epoch: 30 July)

Date Brightness Start Highest point End Pass type
(mag) Time Alt. Az. Time Alt. Az. Time Alt. Az.
31 Jul - 00:43:50 10° WNW 01:03:17 78° SSW 01:15:43 10° SE visible
31 Jul - 03:04:23 10° W 03:16:30 27° SW 03:24:44 10° S visible
31 Jul - 14:31:15 10° S 14:38:06 23° SE 14:47:55 10° E daylight
31 Jul - 16:39:30 10° SW 16:50:34 74° SSE 17:08:58 10° ENE daylight
31 Jul - 18:52:26 10° W 19:07:22 67° NNW 19:27:32 10° ENE daylight
31 Jul - 21:08:30 10° WNW 21:27:10 61° N 21:45:34 10° E visible
31 Jul - 23:25:55 10° WNW 23:46:19 82° NNE 00:01:09 10° ESE visible
01 Aug - 01:44:40 10° WNW 02:01:43 49° SW 02:12:38 10° SSE visible
01 Aug - 15:26:21 10° SSW 15:35:17 48° SE 15:50:20 10° ENE daylight
01 Aug - 17:37:20 10° WSW 17:49:50 78° NNW 18:09:28 10° ENE daylight
01 Aug - 19:51:55 10° W 20:08:27 60° N 20:28:09 10° ENE visible
01 Aug - 22:08:31 10° WNW 22:28:22 69° NNE 22:45:32 10° E visible
02 Aug - 00:26:09 10° WNW 00:45:51 72° SW 00:59:10 10° SE visible
02 Aug - 02:47:14 10° W 02:59:14 25° SW 03:07:48 10° S visible
02 Aug - 14:14:29 10° S 14:21:03 25° SE 14:30:52 10° E daylight
02 Aug - 16:23:11 10° SW 16:33:25 81° SSE 16:51:10 10° ENE daylight
02 Aug - 18:36:06 10° W 18:50:10 63° N 19:10:06 10° ENE daylight
02 Aug - 20:51:40 10° WNW 21:09:49 62° N 21:28:47 10° E visible
02 Aug - 23:08:26 10° WNW 23:28:50 88° NNE 23:44:35 10° ESE visible
03 Aug - 01:27:06 10° WNW 01:44:16 44° SW 01:55:54 10° SSE visible
03 Aug - 15:09:57 10° SW 15:18:13 54° SE 15:32:41 10° ENE daylight
03 Aug - 17:21:08 10° WSW 17:32:45 73° NNW 17:51:44 10° ENE daylight
03 Aug - 19:35:27 10° WNW 19:51:12 59° N 20:11:01 10° ENE visible
03 Aug - 21:51:22 10° WNW 22:10:53 73° NNE 22:28:50 10° ESE visible
04 Aug - 00:08:33 10° WNW 00:28:17 66° SW 00:42:29 10° SE visible
04 Aug - 02:30:15 10° W 02:41:54 22° SW 02:50:39 10° S visible
04 Aug - 13:57:53 10° S 14:04:06 28° SE 14:13:45 10° E daylight
04 Aug - 16:06:59 10° WSW 16:16:26 89° SSE 16:33:21 10° ENE daylight
04 Aug - 18:19:53 10° W 18:33:05 60° N 18:52:36 10° ENE daylight
04 Aug - 20:34:55 10° WNW 20:52:26 64° NNE 21:11:52 10° E visible
04 Aug - 22:51:02 10° WNW 23:11:13 87° SSW 23:27:51 10° ESE visible
05 Aug - 01:09:39 10° WNW 01:26:42 40° SW 01:39:00 10° SSE visible
05 Aug - 14:53:42 10° SW 15:01:18 60° SE 15:15:03 10° ENE daylight
05 Aug - 17:05:02 10° W 17:15:50 67° NNW 17:33:59 10° ENE daylight
05 Aug - 19:19:02 10° WNW 19:34:01 58° N 19:53:49 10° E visible
05 Aug - 21:34:18 10° WNW 21:53:19 77° NNE 22:12:00 10° ESE visible
05 Aug - 23:51:05 10° WNW 00:10:36 61° SW 00:25:37 10° SE visible
06 Aug - 02:13:32 10° W 02:24:31 19° SW 02:33:14 10° S visible
06 Aug - 13:41:25 10° SSW 13:47:15 31° SE 13:56:35 10° ENE daylight
06 Aug - 15:50:55 10° WSW 15:59:37 83° NNW 16:15:33 10° ENE daylight
06 Aug - 18:03:44 10° W 18:16:06 58° N 18:35:06 10° ENE daylight
06 Aug - 20:18:13 10° WNW 20:35:02 66° NNE 20:54:51 10° E visible
06 Aug - 22:33:46 10° WNW 22:53:30 81° SSW 23:10:58 10° SE visible
07 Aug - 00:52:23 10° WNW 01:09:05 36° SW 01:21:54 10° SSE visible
07 Aug - 12:31:50 10° SE 12:33:51 11° SE 12:36:10 10° ESE daylight
07 Aug - 14:37:31 10° SW 14:44:32 68° SE 14:57:27 10° ENE daylight
07 Aug - 16:49:01 10° W 16:59:02 62° NNW 17:16:15 10° ENE daylight
07 Aug - 19:02:41 10° WNW 19:16:52 58° N 19:36:34 10° E visible
07 Aug - 21:17:19 10° WNW 21:35:42 81° NNE 21:55:01 10° ESE visible
07 Aug - 23:33:46 10° WNW 23:52:50 55° SW 00:08:35 10° SE visible
08 Aug - 01:57:10 10° W 02:07:07 17° SW 02:15:29 10° SSW visible
08 Aug - 13:25:03 10° SSW 13:30:31 35° SE 13:39:27 10° ENE daylight
08 Aug - 15:34:56 10° WSW 15:42:57 75° NNW 15:57:47 10° ENE daylight
08 Aug - 17:47:39 10° WNW 17:59:12 55° N 18:17:33 10° ENE daylight
08 Aug - 20:01:34 10° WNW 20:17:38 68° NNE 20:37:43 10° E visible
08 Aug - 22:16:36 10° WNW 22:35:43 75° SSW 22:53:53 10° SE visible
09 Aug - 00:35:18 10° W 00:51:25 32° SW 01:04:35 10° SSE visible
09 Aug - 12:14:31 10° SSE 12:17:10 13° SE 12:20:22 10° ESE daylight
09 Aug - 14:21:28 10° SW 14:27:55 78° SSE 14:39:53 10° ENE daylight
09 Aug - 16:33:06 10° W 16:42:22 57° N 16:58:33 10° ENE daylight
09 Aug - 18:46:22 10° WNW 18:59:45 59° N 19:19:13 10° E daylight
09 Aug - 21:00:27 10° WNW 21:18:02 86° NNE 21:37:50 10° ESE visible
09 Aug - 23:16:35 10° WNW 23:35:01 50° SW 23:51:20 10° SSE visible
